Wind_Speed
22 23 23 24 23 23 24 25 26 26 27 28 29 31 32 30 29 28 27 27 26 25 25 25 25 25 25 26 26 26 26 26 26 27 27 27 27 28 28 28 27 26 25 25 26 27 28 28 27 28 29 28 27 26 26 24 22 22 21 20 19 18 20 23 24 27 30 30 35 39 41 40 37 36 36 38 39 40 40 39 38 37 36 35 34
21 22 22 23 23 23 24 24 26 27 28 28 30 32 33 31 29 29 29 28 27 26 25 25 25 25 25 25 26 26 26 26 26 26 26 26 27 27 27 28 27 26 25 25 25 26 27 27 26 26 28 29 30 30 28 25 23 23 22 21 21 21 20 21 22 23 25 27 31 35 39 42 40 37 37 38 40 41 41 41 40 39 38 38 37
21 22 22 22 23 23 23 25 27 28 28 29 31 32 32 31 29 29 29 29 28 27 26 25 25 24 25 25 26 26 26 26 26 26 26 26 26 27 27 27 27 26 25 25 25 26 27 27 26 25 26 28 30 31 30 28 26 24 24 24 23 21 21 21 22 22 21 22 27 30 33 39 43 40 38 38 40 41 42 42 42 42 41 40 39
21 22 22 22 22 23 23 25 27 29 30 31 32 32 31 30 29 29 28 27 27 26 26 25 25 25 25 25 25 25 25 25 26 26 26 26 26 26 27 27 27 26 25 24 24 25 26 27 26 26 25 26 28 30 31 31 29 27 26 26 24 22 21 21 21 22 22 20 22 26 29 33 39 41 41 39 40 41 41 41 42 42 42 42 41
22 22 22 22 22 23 24 25 28 30 32 32 31 31 31 29 29 28 26 25 25 25 25 25 25 25 26 25 25 25 25 25 25 26 26 26 26 26 26 26 26 26 25 24 24 24 25 26 26 26 25 25 26 28 30 31 32 30 29 28 26 24 23 22 21 22 24 22 20 22 26 29 32 36 39 40 40 41 41 41 41 41 42 42 42
23 23 24 24 24 24 25 26 28 30 32 32 30 30 30 29 28 26 24 24 24 25 25 26 26 26 26 26 25 25 25 25 25 25 26 26 26 26 25 25 25 25 24 24 23 24 24 25 26 25 25 24 25 26 27 29 30 31 30 30 29 27 25 25 23 23 24 24 21 20 23 27 30 33 35 36 37 39 41 40 40 40 41 41 42
24 24 26 26 25 26 26 26 28 31 32 31 30 29 28 26 25 24 23 22 23 25 26 27 27 27 26 26 26 26 25 25 25 25 25 26 26 26 25 25 25 25 24 23 23 23 24 24 25 25 24 24 24 24 25 26 28 29 30 30 30 30 29 28 27 26 25 24 23 22 22 24 28 32 35 35 35 37 39 40 40 40 40 40 41
26 26 29 28 27 27 26 25 27 30 30 28 28 27 25 24 23 22 21 22 23 25 26 27 28 27 27 26 26 26 26 25 25 25 25 25 25 25 25 24 24 24 24 23 23 23 23 23 24 24 24 24 23 24 24 24 25 26 27 28 29 30 30 30 30 29 28 27 26 25 24 23 24 28 32 35 36 37 38 39 40 40 39 40 40
30 30 33 32 30 28 25 25 27 28 27 26 27 25 23 22 21 20 20 21 22 24 26 27 27 27 27 26 26 26 26 26 25 25 25 24 24 24 24 24 24 24 23 23 23 23 23 23 24 24 24 24 23 23 23 24 24 24 25 26 27 28 29 30 30 30 30 29 28 28 27 26 25 25 27 31 34 36 36 38 40 40 40 39 40
37 36 35 34 31 27 25 26 27 26 25 25 26 25 22 21 20 20 20 20 21 23 24 25 26 26 26 26 26 26 26 26 26 25 25 25 24 24 24 24 24 23 23 23 22 22 23 23 24 24 24 24 24 23 23 23 24 24 24 24 25 26 27 28 28 29 29 29 29 30 30 30 29 29 28 29 30 32 34 35 36 38 39 40 41
37 34 33 32 29 25 24 26 27 26 25 25 25 24 22 20 20 19 19 19 19 20 22 24 24 25 25 25 25 25 26 26 25 25 25 25 25 24 24 24 24 24 23 23 22 22 23 23 23 24 24 24 24 23 23 23 24 24 24 24 25 25 26 27 27 27 27 28 28 29 30 31 31 32 32 31 31 31 31 32 33 35 36 37 38
28 27 28 27 26 23 22 24 26 25 24 25 25 24 22 21 20 20 19 19 18 18 20 21 23 23 23 23 24 24 24 24 24 24 24 24 24 24 24 24 24 24 24 23 23 23 23 23 23 24 24 24 24 24 23 23 23 24 24 24 24 25 25 26 27 27 27 27 27 27 28 29 30 31 32 33 34 33 33 33 34 35 36 36 37
20 22 25 25 25 24 22 23 25 25 24 24 24 23 22 21 21 21 21 20 20 19 19 21 22 22 22 22 22 23 23 23 23 23 23 23 24 24 24 25 25 25 25 24 24 24 24 23 23 23 24 24 24 24 24 24 23 23 24 24 24 24 25 25 26 26 27 27 27 27 27 28 28 29 30 32 33 35 35 35 36 38 38 38 38
19 21 24 25 25 26 25 25 26 26 25 25 24 22 22 21 22 23 23 23 22 21 21 22 22 23 23 23 23 23 23 23 23 23 23 23 23 23 24 24 25 25 25 25 25 25 24 24 24 24 24 24 24 24 24 24 25 24 24 24 24 24 25 25 26 26 27 27 27 27 27 27 28 28 29 30 31 33 34 35 36 38 39 39 41
20 22 24 26 27 28 29 29 30 29 28 26 25 23 22 22 23 24 25 25 25 24 23 23 24 24 24 24 24 24 24 24 24 23 23 23 23 23 23 24 25 25 25 25 25 25 25 25 25 24 24 24 24 25 25 25 25 25 25 25 25 25 25 25 26 27 27 28 28 28 29 29 29 29 29 30 30 32 33 34 34 35 37 38 39
22 24 25 27 28 28 28 30 32 33 30 28 27 25 24 23 24 25 26 27 27 26 25 25 25 25 25 25 25 25 25 26 25 24 24 24 23 23 23 24 24 25 25 25 24 24 23 24 24 24 24 24 25 25 25 25 26 26 26 26 26 26 26 25 25 26 27 28 28 29 29 30 30 30 30 31 31 32 33 34 34 35 35 35 36
24 26 26 26 28 29 29 29 30 31 30 28 27 27 26 26 26 26 26 27 27 26 25 24 24 24 24 24 24 25 25 26 26 26 25 25 25 24 23 23 24 25 25 25 25 24 23 22 22 23 23 24 24 25 25 26 26 26 26 27 27 27 27 27 27 27 27 28 29 29 30 30 30 31 31 32 32 33 33 34 35 35 35 35 35
24 25 27 28 30 31 29 26 26 27 27 27 27 28 28 27 25 24 24 25 26 26 25 24 23 22 22 23 23 24 25 25 25 25 25 25 25 25 24 24 24 24 25 26 26 25 24 23 22 23 23 24 25 25 26 27 27 27 28 28 28 29 29 29 29 30 30 30 30 31 31 31 32 32 32 33 33 34 34 35 36 36 36 36 36
23 24 26 27 26 26 25 25 26 26 26 27 28 28 27 26 24 23 23 23 24 25 25 24 23 21 21 22 22 23 24 24 25 25 25 25 26 26 25 25 24 24 25 26 26 26 26 25 24 24 25 26 26 27 28 28 29 29 30 30 30 31 32 32 32 32 33 33 33 34 34 35 35 35 35 35 35 36 36 37 38 38 38 38 38
27 26 26 26 25 24 25 26 27 28 28 29 29 26 23 23 23 22 22 23 24 24 25 24 23 22 22 22 22 23 23 23 24 24 24 25 26 26 26 26 25 25 25 26 26 26 26 26 26 27 27 28 29 29 30 30 31 31 32 32 33 33 34 34 35 35 35 36 36 37 37 38 38 38 39 39 39 39 39 39 40 40 41 41 41
32 31 30 28 27 27 27 28 28 30 30 31 31 29 25 24 24 23 23 23 24 25 26 26 26 26 26 26 26 25 24 24 23 23 23 23 24 25 26 26 26 25 25 25 25 25 26 26 27 28 29 30 31 31 32 32 33 33 34 34 35 36 36 36 37 37 38 38 39 39 40 40 41 41 41 42 42 42 42 43 43 43 43 44 44
33 34 33 31 29 27 28 29 30 31 32 32 33 34 32 29 28 27 26 24 25 26 27 28 29 29 29 28 28 27 26 25 23 22 23 23 23 23 23 23 22 23 22 22 22 23 23 25 26 28 29 30 31 32 33 33 33 34 35 35 35 36 37 38 39 39 40 40 41 41 42 43 43 43 43 43 44 44 44 45 45 46 46 46 47
33 33 33 32 30 29 29 30 31 32 34 35 35 35 34 31 30 30 29 27 27 28 28 29 30 31 31 30 29 28 27 25 24 23 24 25 26 26 25 24 23 24 24 24 24 24 24 25 26 27 28 29 30 31 31 32 33 34 34 35 35 36 37 38 39 40 41 42 42 43 44 44 44 45 45 46 46 46 47 47 47 48 48 48 49
34 34 34 33 33 32 31 31 32 33 34 35 35 35 34 33 33 32 31 30 30 30 30 30 31 32 31 30 29 29 29 28 28 28 28 27 27 28 28 29 29 29 29 28 27 26 26 27 28 28 28 29 30 30 30 31 32 33 34 35 36 37 38 39 40 41 42 43 43 44 45 45 45 45 46 47 47 48 48 49 49 50 50 50 51
36 36 36 36 36 35 34 34 34 34 33 33 34 35 35 34 34 33 33 33 33 33 33 33 34 34 33 33 32 31 31 32 32 32 30 29 29 29 30 31 31 32 32 31 30 28 28 29 30 30 31 31 31 30 31 31 32 33 34 35 35 36 37 39 40 41 41 42 43 43 43 44 45 45 45 46 47 47 48 49 49 50 51 52 53
39 39 38 38 38 38 38 38 38 38 37 36 36 37 37 37 36 36 36 36 36 35 34 34 35 36 36 36 35 34 34 34 35 35 33 33 32 32 32 33 34 34 35 35 34 34 34 33 33 33 33 33 32 32 32 32 33 33 34 35 36 36 37 38 39 40 40 40 40 39 40 40 41 41 42 42 43 45 46 47 47 48 50 51 52
41 41 41 41 41 41 42 43 43 43 42 41 40 40 39 39 40 40 40 39 38 38 37 36 36 36 37 37 37 37 36 36 36 37 37 36 36 37 39 39 39 39 40 40 40 39 39 38 37 35 35 35 36 36 36 36 36 36 37 37 38 38 38 39 39 40 40 39 38 37 36 36 37 37 37 37 38 40 41 43 44 46 47 49 51
43 42 43 43 44 45 45 45 46 46 45 44 43 42 41 41 41 41 41 40 40 40 39 39 39 38 38 38 39 39 39 38 39 40 40 40 41 44 46 47 48 47 46 45 43 43 43 42 40 39 38 38 38 38 39 39 40 40 39 40 40 40 40 40 40 41 40 39 38 37 37 36 36 35 35 36 36 37 38 39 41 43 45 46 48
43 42 43 44 46 47 47 47 47 47 46 46 45 44 44 44 44 43 43 42 41 41 41 42 42 42 41 42 42 41 41 42 43 43 43 43 42 44 47 49 50 50 50 49 47 46 45 44 43 42 41 41 41 41 41 42 42 42 42 42 42 42 42 42 42 42 42 42 41 40 39 38 38 37 37 37 38 38 39 39 40 42 44 45 47
47 47 47 48 48 49 49 50 50 50 50 49 48 48 48 48 48 48 48 47 45 45 45 46 46 46 45 45 45 44 44 45 45 45 45 45 45 45 46 48 50 51 51 50 50 49 49 48 47 44 43 44 44 44 44 44 44 44 44 44 44 44 44 44 44 44 44 44 43 42 41 41 40 40 40 40 40 40 41 41 42 43 44 46 47
53 53 52 51 52 52 52 52 52 52 53 53 52 52 52 52 51 51 51 51 50 50 50 50 50 49 49 48 48 47 47 47 48 47 47 47 48 48 48 49 52 53 53 51 49 46 46 49 51 47 43 43 45 45 46 46 46 46 46 45 45 44 45 45 45 46 46 46 45 44 44 43 43 43 43 43 43 43 44 44 45 46 46 48 49
55 54 54 53 53 53 53 53 53 53 54 54 54 54 54 54 53 53 53 53 53 53 52 52 52 51 51 51 50 50 50 50 51 50 49 48 50 51 51 51 52 54 55 55 52 47 44 46 48 47 43 42 43 45 47 48 48 49 48 47 47 46 45 46 46 47 48 47 46 46 45 45 45 45 46 46 46 47 47 47 48 48 49 50 51
55 55 54 54 53 53 53 53 53 53 53 53 54 54 54 54 54 54 54 54 54 54 53 53 53 53 53 52 52 51 51 52 53 53 51 50 50 52 53 53 52 52 54 54 52 51 48 43 39 40 41 41 43 45 47 48 49 50 50 49 48 47 46 46 47 48 49 48 47 47 47 47 47 48 48 49 50 50 50 51 51 51 52 52 54
54 54 54 54 54 53 53 53 52 52 52 52 53 53 53 53 53 53 54 54 54 54 54 54 53 53 53 54 53 53 52 53 53 53 53 52 52 53 55 55 53 52 53 52 51 54 53 45 39 39 40 41 42 45 47 49 50 50 50 49 49 48 47 47 47 48 49 49 49 48 48 48 49 50 51 52 53 53 53 53 53 54 55 56 57
53 53 53 53 53 52 52 51 51 51 51 51 52 52 52 52 53 53 53 54 55 55 55 55 55 55 54 55 54 54 54 54 54 54 55 54 54 55 55 55 54 53 53 52 51 53 54 50 44 41 40 42 46 48 50 51 51 50 49 49 49 48 48 48 48 48 48 49 49 50 50 51 52 53 54 55 56 56 56 56 57 57 58 59 60
52 52 52 52 51 51 51 50 50 50 51 51 52 52 52 52 53 53 54 54 54 55 55 56 56 56 56 56 55 55 55 55 56 56 56 57 57 57 57 57 56 55 54 52 50 52 53 51 47 46 49 53 55 55 54 53 52 52 51 50 50 50 49 48 47 48 48 49 51 52 52 53 53 54 56 58 59 59 60 60 60 61 62 62 63
51 51 51 51 51 50 50 50 50 51 51 52 52 52 52 53 53 54 54 54 54 54 54 55 55 55 55 55 56 56 56 56 57 58 58 58 58 58 58 58 57 55 55 54 54 55 57 58 57 58 60 61 59 57 56 55 55 54 53 52 52 51 49 48 47 48 49 51 52 53 53 54 55 57 59 61 62 63 63 63 64 65 65 65 65
50 51 51 51 51 51 51 51 51 51 52 52 52 52 53 53 53 54 54 54 54 54 54 54 53 54 54 54 55 55 56 57 57 58 58 59 59 59 59 58 56 55 54 54 54 56 58 60 61 61 60 58 57 57 58 58 57 56 55 54 52 50 48 48 49 49 50 51 52 53 55 56 58 60 62 63 65 66 66 67 67 67 67 66 67
51 51 51 51 52 52 51 51 51 51 52 52 52 52 52 52 52 53 53 53 53 54 54 54 53 53 53 54 54 54 55 56 56 57 58 58 58 56 55 54 53 51 50 50 50 51 53 55 55 55 54 53 53 55 56 57 57 56 55 53 50 49 48 49 50 50 50 51 53 56 58 60 61 63 64 66 67 69 69 69 69 69 68 68 70
50 51 51 51 51 51 51 51 51 51 51 51 51 51 51 51 51 51 51 52 53 54 54 54 54 54 54 54 55 55 55 56 56 57 57 56 55 51 49 49 50 49 49 48 47 47 48 49 49 50 50 52 53 53 54 55 55 53 51 47 45 44 46 48 50 51 53 56 59 61 62 63 64 65 67 68 69 70 71 71 72 72 72 72 74
50 50 51 51 51 51 50 50 50 50 49 49 49 49 49 49 49 50 51 52 52 53 53 54 54 54 55 56 57 57 57 57 57 57 55 55 54 52 49 49 49 48 47 45 45 44 44 46 47 49 51 53 54 54 53 53 53 51 49 47 47 48 49 50 51 54 57 60 62 63 64 65 67 68 69 69 70 71 72 73 74 75 74 74 74
49 50 51 51 50 49 49 48 48 48 47 47 47 48 48 48 48 49 51 52 53 53 53 54 55 55 56 57 58 58 57 55 54 52 49 47 47 46 45 45 47 49 48 48 47 47 47 48 49 50 51 51 52 51 50 50 50 49 48 49 51 52 53 53 54 56 59 61 62 63 64 66 67 68 69 70 71 73 74 74 73 72 70 69 69
50 51 52 51 50 48 48 48 48 49 49 49 49 49 50 50 50 51 53 55 55 54 54 54 55 56 56 56 56 54 51 48 45 44 41 40 40 40 38 38 42 45 47 47 47 47 48 49 50 50 51 51 50 50 49 48 48 48 49 50 52 52 54 55 56 57 59 60 61 63 65 66 68 70 71 72 73 73 71 69 67 66 66 67 67
50 50 51 52 51 50 50 51 52 52 52 52 51 52 52 52 52 53 54 55 55 55 54 54 54 54 52 49 47 45 41 39 37 36 35 36 37 37 36 37 39 40 41 42 44 45 46 48 48 49 49 49 48 48 48 47 47 48 49 50 51 52 54 56 57 58 59 61 62 64 66 68 70 71 72 72 70 68 66 65 65 65 66 66 65
52 53 54 55 55 54 54 54 55 55 54 53 54 54 53 52 52 51 50 51 52 51 48 46 45 43 40 39 38 36 34 33 32 31 31 32 33 34 34 35 37 38 39 41 42 43 43 43 44 44 45 45 46 46 45 45 45 46 47 48 50 52 54 56 58 59 61 62 65 66 68 69 70 69 68 67 64 63 64 63 62 61 59 59 59
57 57 58 57 56 56 55 55 55 55 55 54 53 51 47 44 43 41 41 42 43 40 36 34 33 33 33 33 33 32 31 30 29 29 30 31 31 31 31 32 34 35 37 38 39 39 39 39 39 38 38 39 39 40 40 41 42 44 46 48 51 53 55 57 59 61 63 65 66 67 67 66 66 65 64 63 63 63 62 59 55 52 52 53 55
59 58 58 57 57 56 56 55 55 55 53 48 43 38 34 33 32 32 33 35 34 31 29 29 29 29 30 31 30 30 30 30 31 32 32 30 29 30 30 31 32 32 33 35 35 34 33 31 30 30 31 32 34 36 38 40 43 45 47 50 52 54 56 58 60 62 63 64 63 63 63 62 63 63 64 64 62 60 55 51 49 49 49 50 51
59 58 57 57 56 54 53 51 49 46 41 34 29 27 25 25 26 27 28 30 30 27 26 27 27 27 28 30 31 32 32 33 33 32 30 29 30 30 29 29 29 30 30 30 28 26 25 25 26 27 30 32 35 37 39 42 44 46 48 51 53 55 56 57 59 59 59 58 58 59 60 61 63 64 63 61 58 54 50 48 47 45 45 45 45
56 54 52 50 46 42 39 37 36 33 27 24 23 22 20 20 20 19 20 24 24 22 22 23 23 24 26 30 32 32 32 32 32 31 29 28 27 26 25 26 26 25 24 23 22 22 23 25 27 28 31 33 36 39 41 43 45 47 49 51 52 53 53 54 55 55 55 55 56 58 60 61 61 59 57 54 52 49 47 45 43 41 41 42 43
42 39 36 32 29 27 27 27 28 25 22 21 20 18 17 17 15 10 9 11 12 14 18 22 25 28 31 33 33 31 30 30 30 28 25 23 22 21 21 21 20 18 18 19 20 22 23 25 27 29 32 35 37 39 41 43 45 47 48 49 49 50 50 51 52 53 54 55 57 58 58 56 54 51 50 49 47 44 42 41 40 41 41 42 42
26 24 23 21 21 22 23 25 25 22 20 19 17 15 16 17 13 7 6 9 11 15 21 26 29 31 33 32 31 29 28 28 25 22 19 18 17 17 16 16 15 16 17 19 20 21 23 25 28 31 34 35 37 38 40 41 43 43 44 45 46 46 47 49 51 53 54 54 55 54 51 48 46 44 43 42 40 39 39 40 41 41 42 41 41
Wind_Direction
249 251 254 259 263 265 267 269 272 272 271 271 271 271 271 272 272 272 271 270 269 267 266 264 264 264 264 264 265 265 265 264 264 263 263 262 262 262 263 263 263 263 261 260 260 260 259 259 257 255 254 251 250 252 253 254 259 261 261 260 257 251 239 237 240 230 224 229 233 232 230 227 227 226 226 226 226 228 230 231 232 234 236 237 237
251 254 258 264 267 269 272 274 274 274 272 270 269 270 271 272 273 274 274 274 273 271 269 266 265 264 264 264 264 264 264 264 263 262 262 261 261 261 262 262 263 263 261 260 259 259 260 259 258 256 254 251 248 247 248 249 253 255 257 257 254 254 246 237 237 232 224 221 224 229 230 228 226 225 225 227 227 228 230 231 232 233 235 236 238
256 259 262 267 271 274 278 278 277 276 273 269 268 270 272 274 274 274 274 275 274 273 272 269 268 266 265 264 263 263 262 262 262 262 262 261 261 261 261 262 262 263 261 260 259 259 260 259 258 257 255 253 249 248 247 245 247 249 251 252 249 250 250 243 241 242 237 228 225 227 228 227 227 226 226 226 228 229 230 232 233 234 235 236 238
258 261 264 269 273 275 277 277 276 274 271 268 269 271 273 274 275 274 275 276 276 275 273 272 270 268 267 266 265 263 263 262 262 262 262 261 261 261 261 261 262 262 261 259 258 258 259 259 258 257 256 254 251 249 247 246 247 248 249 252 251 250 249 246 245 247 244 237 232 231 230 229 228 228 227 227 228 230 232 233 235 235 237 238 239
256 263 267 270 273 274 274 273 272 271 268 267 269 272 274 275 275 275 276 278 278 277 275 273 271 269 268 267 265 264 263 263 263 263 263 263 262 261 261 261 262 262 261 259 257 256 257 259 259 258 256 255 253 251 249 248 249 250 250 250 251 251 250 247 246 249 248 244 240 236 234 233 231 230 230 229 230 232 232 233 235 237 238 239 240
255 262 266 269 273 276 274 270 268 267 266 266 269 271 273 274 275 276 278 278 278 277 276 274 272 271 269 268 266 264 262 261 261 261 262 262 263 263 262 262 262 262 261 260 257 256 255 257 258 258 257 255 254 252 251 250 250 251 251 250 249 249 250 249 247 248 250 249 245 241 237 235 233 233 233 232 232 234 234 233 235 237 239 240 240
255 265 269 269 276 280 275 266 262 263 265 266 267 269 270 272 273 275 275 274 273 273 273 272 272 271 271 270 268 266 263 261 260 258 258 259 261 262 262 263 263 262 262 260 258 256 255 256 257 258 257 256 254 253 252 251 250 250 251 251 251 250 250 251 250 249 250 251 249 245 241 239 237 236 236 235 235 236 236 235 235 237 239 241 242
261 272 276 275 281 283 272 259 256 259 263 264 264 265 268 270 271 273 272 269 268 268 268 269 270 271 272 271 270 268 266 264 263 260 259 258 258 260 261 262 262 262 262 261 259 257 256 256 256 257 258 257 254 253 253 253 252 251 250 251 252 252 252 252 252 250 249 251 251 249 247 245 244 242 241 239 238 237 238 237 237 238 240 241 243
274 279 281 282 286 281 264 252 250 254 257 259 260 261 264 267 269 270 269 267 265 265 266 268 269 271 271 271 270 269 268 267 266 264 262 260 258 258 260 261 262 262 261 261 260 258 257 256 256 257 257 258 256 254 253 253 253 252 251 251 252 253 254 254 254 252 251 250 250 250 250 250 249 248 246 244 241 240 240 240 238 239 242 243 244
279 280 280 282 283 272 257 248 245 247 250 252 256 258 261 265 267 268 267 265 264 264 266 267 269 269 270 270 269 269 269 268 267 266 264 263 261 260 261 262 263 263 262 261 259 258 258 257 257 257 257 258 258 256 254 252 252 252 251 250 251 253 254 254 254 254 252 251 250 249 250 250 250 249 249 248 245 243 244 244 243 242 243 245 245
278 277 276 276 273 263 254 247 242 242 245 249 253 256 258 261 264 265 266 265 264 264 265 267 268 269 269 269 269 269 269 269 268 267 266 265 264 263 263 264 264 265 264 262 260 258 257 257 257 257 257 257 258 258 256 254 252 251 251 249 249 250 252 253 254 254 253 252 251 250 250 250 250 250 250 250 249 247 246 246 247 248 247 247 248
277 274 269 266 261 257 251 243 239 239 243 247 252 255 257 259 261 263 264 264 264 264 265 267 268 270 271 272 272 272 271 270 269 268 267 266 265 265 265 265 265 265 265 264 262 260 258 257 256 255 256 257 257 257 258 257 255 253 252 251 249 248 249 250 252 253 254 253 252 251 251 251 250 250 251 251 251 250 248 246 247 249 250 251 252
275 267 263 257 251 249 244 237 235 235 240 245 250 255 258 260 262 263 264 264 264 264 265 268 269 271 273 274 274 273 272 272 271 269 268 267 266 266 266 267 267 267 266 265 264 262 260 258 256 256 256 256 256 256 256 256 256 255 254 254 253 251 250 250 251 252 253 254 253 252 251 250 250 249 250 250 251 251 250 248 247 248 249 250 252
272 264 261 258 252 250 246 239 233 232 236 242 247 254 259 262 264 265 266 266 265 265 266 268 270 272 273 274 275 275 275 273 272 271 270 268 268 268 268 269 269 269 268 267 266 265 263 262 260 258 257 257 257 257 256 256 256 256 255 255 255 255 253 253 253 253 253 254 254 254 253 251 250 248 248 248 249 250 250 249 247 247 248 248 250
265 263 262 261 259 258 256 249 241 237 238 240 244 253 261 265 266 267 266 265 264 265 266 268 269 270 271 273 274 275 276 275 275 274 273 271 269 269 270 270 271 272 271 270 268 267 267 266 265 264 262 260 259 258 258 257 257 257 256 256 256 256 256 256 255 256 256 256 256 256 255 255 253 251 250 248 248 248 250 250 249 248 248 248 249
257 258 260 264 266 266 267 263 255 249 246 244 247 252 260 266 267 266 265 264 263 263 264 265 266 267 269 271 272 274 275 276 276 276 276 274 273 271 271 271 272 273 273 272 270 268 266 266 266 267 266 265 264 263 262 261 260 259 258 258 258 257 257 257 257 257 258 258 258 259 258 258 257 256 254 253 251 250 250 250 251 251 249 249 249
255 255 256 260 263 265 269 271 265 258 256 257 258 257 261 266 266 264 262 261 261 262 262 263 263 265 266 268 270 271 272 274 275 276 277 277 276 274 273 272 272 273 274 274 273 271 268 265 264 264 265 265 266 266 266 266 266 265 264 264 263 263 262 261 261 260 260 260 260 260 261 261 261 261 260 258 257 256 254 253 253 253 252 250 249
255 255 256 256 257 258 263 266 265 264 266 270 270 266 266 266 263 260 259 258 259 261 263 263 263 264 265 266 267 268 269 271 273 274 275 276 276 275 275 274 274 274 274 275 274 274 272 270 267 265 264 264 264 264 265 266 267 267 267 268 268 268 267 267 267 266 266 265 264 264 263 262 263 263 263 263 262 261 260 260 258 257 256 254 252
257 256 258 258 257 259 262 263 265 267 269 272 274 272 271 265 258 257 260 260 261 263 265 265 263 263 264 265 265 266 266 267 269 271 272 273 274 274 274 273 273 273 273 274 274 274 275 274 273 271 269 268 267 267 267 267 268 268 269 270 270 270 270 270 270 270 270 270 270 269 268 267 266 265 264 264 264 264 263 264 263 262 261 259 257
258 255 256 258 258 260 262 262 265 267 267 268 270 271 268 261 256 255 257 259 261 263 264 263 263 263 264 264 263 263 264 264 266 267 268 269 270 271 272 271 270 270 269 270 271 272 273 274 274 274 273 272 272 271 271 271 271 271 272 272 272 272 272 272 272 272 272 271 271 271 270 270 269 269 268 267 266 265 265 265 265 265 265 264 262
262 260 259 258 257 256 257 259 262 263 263 264 266 264 258 252 251 252 252 255 259 260 261 262 265 269 268 265 261 260 261 263 264 266 268 269 269 269 269 269 268 267 266 266 266 267 269 270 271 272 273 273 274 273 274 274 275 275 275 275 275 275 274 274 274 273 272 272 271 271 270 270 270 270 270 270 269 268 268 268 267 267 267 266 265
265 266 266 265 261 257 255 256 258 260 262 264 266 265 259 251 249 250 249 252 255 256 259 263 267 271 271 267 264 262 262 264 266 269 271 272 271 270 268 266 265 265 265 264 264 265 267 268 269 269 270 271 272 273 274 275 276 276 276 276 277 277 276 276 275 274 273 272 272 271 271 270 270 270 270 270 269 269 269 269 269 268 269 269 267
262 264 266 267 265 261 258 256 256 257 259 261 263 266 264 259 255 253 250 251 251 251 255 261 265 268 268 266 265 265 265 266 271 276 277 275 274 272 269 267 266 265 265 265 264 265 266 266 267 267 268 269 270 271 272 273 274 275 276 276 277 277 277 277 276 275 275 274 273 273 272 271 271 271 271 271 270 270 270 269 269 269 268 269 269
261 262 263 263 263 262 260 257 255 254 255 258 261 264 265 263 261 259 257 256 255 254 255 259 263 266 266 264 264 265 265 265 270 275 277 275 273 272 272 271 270 270 269 266 265 267 269 268 266 264 264 265 266 268 270 272 274 276 277 279 280 280 279 278 276 275 274 274 274 274 273 273 273 272 272 272 272 271 271 271 270 270 269 269 268
260 262 261 260 259 260 259 257 254 253 253 256 259 261 262 261 261 262 263 263 262 260 259 260 261 264 266 266 265 266 267 268 271 274 274 272 271 270 270 270 271 271 269 266 265 268 273 274 272 269 265 264 264 266 269 272 276 278 280 282 283 283 283 280 277 274 272 272 272 272 272 272 272 272 272 272 272 272 271 271 271 271 271 270 270
260 261 261 259 257 257 257 256 255 255 254 253 256 258 259 260 260 261 263 264 264 262 260 259 260 262 264 267 268 268 269 270 272 274 274 273 271 270 270 270 270 269 268 266 265 266 271 275 276 274 270 267 265 265 268 272 275 278 281 283 285 286 285 282 278 274 272 270 269 269 269 269 269 270 270 271 271 271 271 271 271 271 271 271 271
261 261 260 259 258 257 257 258 259 259 258 257 257 258 258 259 259 259 259 260 261 261 260 259 260 261 263 265 268 269 269 270 272 274 275 275 275 274 273 272 270 267 265 264 264 265 269 273 274 273 271 269 268 268 270 272 275 278 280 282 284 285 284 282 279 275 273 270 268 266 266 267 267 268 268 269 271 271 272 272 272 272 272 271 271
260 259 259 259 259 259 258 259 259 260 260 259 258 256 256 256 257 258 258 259 259 259 260 260 261 262 263 264 266 267 269 270 271 273 273 274 276 276 275 274 272 269 266 263 263 264 266 269 270 270 270 270 268 269 270 272 275 277 279 281 282 283 283 282 280 276 272 269 267 266 265 266 267 268 270 271 272 273 274 275 276 276 275 274 273
259 259 260 260 259 260 259 259 259 259 259 258 257 255 255 255 256 257 257 258 258 257 258 261 262 263 263 264 264 265 267 268 269 270 270 271 272 272 271 272 273 271 267 264 264 265 266 266 267 268 269 269 268 269 270 272 274 276 278 279 279 280 281 281 280 277 272 269 268 268 267 266 267 269 271 273 275 276 277 278 279 279 279 278 277
260 261 261 261 260 259 259 259 259 260 260 260 259 258 258 258 259 260 260 260 258 257 257 260 262 263 263 264 264 264 265 266 266 267 268 269 270 269 268 269 269 271 270 268 266 267 268 268 269 269 269 269 270 272 273 273 274 275 277 278 278 278 278 278 278 276 272 268 268 269 267 268 269 271 273 274 275 277 278 280 281 281 282 282 280
261 261 261 260 260 260 259 259 259 260 261 262 262 262 262 262 262 263 263 264 263 261 260 260 261 262 263 263 264 264 264 264 265 265 265 267 267 267 267 266 266 270 273 273 271 271 273 275 273 269 269 270 272 274 275 275 276 276 277 278 278 277 277 276 275 275 271 267 267 268 268 269 272 273 274 275 276 276 277 279 280 281 282 282 282
261 262 261 261 260 260 260 260 259 260 260 261 262 263 263 264 264 264 265 265 265 265 265 264 263 263 263 263 263 264 264 264 264 264 264 264 265 266 267 265 265 267 270 272 272 272 279 284 275 266 266 271 273 274 275 276 277 277 278 280 280 278 276 275 274 273 270 266 265 267 269 271 273 274 275 275 276 276 277 277 279 280 281 281 282
261 261 261 261 261 260 260 260 260 261 261 261 261 261 261 262 263 264 265 265 266 266 266 266 266 266 265 265 264 263 263 263 263 263 264 263 263 265 265 266 267 267 268 271 270 271 279 282 273 265 267 270 273 275 276 278 279 279 279 280 280 278 276 274 273 270 267 265 265 267 269 272 273 274 275 275 275 276 277 277 278 279 280 280 281
262 262 262 261 261 261 261 261 261 261 261 261 261 261 261 261 262 263 264 265 265 266 266 266 266 266 266 266 266 265 264 263 262 262 263 263 262 262 264 265 267 267 269 271 271 272 274 271 268 270 269 269 273 277 278 278 278 279 279 280 280 278 276 274 271 268 265 265 267 269 271 272 273 274 274 275 275 276 277 278 279 279 280 280 280
263 263 263 262 262 262 262 262 262 262 262 262 263 262 262 262 263 262 263 263 264 265 265 266 265 265 265 265 265 265 265 264 264 264 263 263 262 262 263 265 266 267 268 270 270 272 271 266 265 267 267 270 277 280 281 280 277 277 278 279 279 278 276 272 268 266 266 267 270 272 272 272 273 273 274 275 276 276 277 278 279 279 279 279 279
265 265 264 264 264 264 264 263 263 263 263 263 264 264 264 264 265 265 264 264 263 263 263 264 264 264 264 264 264 264 263 264 264 264 265 265 265 264 264 265 266 266 266 266 267 268 267 266 266 266 269 275 279 279 280 279 277 277 277 277 277 277 275 270 266 265 267 270 272 273 273 273 273 274 274 275 275 276 277 279 279 279 279 278 278
266 266 266 266 266 266 265 265 264 264 264 264 265 265 265 265 266 266 266 265 264 263 262 262 261 262 262 262 263 263 263 263 264 264 265 265 266 266 266 266 267 266 265 264 263 264 265 268 270 272 274 277 277 276 276 276 276 277 277 276 276 275 272 268 265 265 268 271 273 274 274 274 274 274 274 275 275 276 278 279 279 279 278 278 277
265 265 265 266 266 265 265 265 265 265 265 265 265 265 265 265 266 266 266 266 266 265 264 262 261 261 261 261 261 261 262 262 263 263 264 264 265 266 267 268 269 269 269 268 267 266 267 269 272 275 276 276 275 273 273 273 274 276 278 278 275 272 269 266 264 266 269 271 273 275 275 275 276 275 275 275 276 276 277 278 278 278 278 277 277
264 264 264 264 265 265 265 265 265 265 265 265 264 264 264 264 264 264 264 264 265 265 264 264 263 262 262 262 262 261 261 261 262 262 262 263 265 265 267 269 271 271 271 271 270 270 270 272 274 275 275 274 273 272 272 272 273 276 278 277 273 270 269 268 266 266 269 272 275 276 276 276 275 275 275 276 276 276 276 277 277 277 277 277 276
264 265 264 264 265 265 265 265 265 265 265 265 264 264 263 263 262 262 262 262 262 262 263 264 264 263 263 263 263 262 262 262 262 262 262 262 262 262 261 264 270 273 272 271 271 272 273 273 273 273 274 275 275 274 274 272 272 275 277 274 271 271 272 270 268 267 269 273 276 276 275 275 274 275 275 275 275 275 276 276 277 277 278 277 277
266 267 267 267 267 267 267 267 267 267 266 266 266 265 264 263 263 263 263 262 261 261 261 261 262 262 262 262 262 262 262 262 262 262 262 261 261 260 257 257 263 269 271 271 271 271 271 270 271 273 275 276 276 276 275 274 273 273 275 274 274 276 276 274 271 270 272 275 276 275 274 274 274 274 275 275 276 277 277 278 278 278 278 278 276
267 268 269 269 269 269 269 270 270 270 269 269 269 268 267 267 267 267 267 266 265 263 262 262 262 262 261 261 261 261 261 261 260 260 259 259 259 260 258 255 254 256 261 265 268 269 269 269 271 273 273 273 274 274 275 274 272 272 275 278 278 279 278 277 275 275 276 276 276 275 275 275 275 276 277 278 278 278 279 279 279 279 278 277 276
267 268 269 270 270 270 270 271 271 271 271 272 272 271 270 270 271 271 270 270 269 267 265 264 263 262 261 260 259 258 257 256 254 254 253 251 252 254 256 255 253 254 258 263 265 266 268 269 269 270 270 271 272 273 274 274 273 274 277 279 279 278 278 278 278 278 277 277 277 277 278 278 278 279 279 279 279 279 280 280 280 279 278 277 276
265 266 267 268 269 269 270 271 272 272 273 274 274 274 274 275 274 273 272 271 269 267 265 264 262 260 258 256 253 251 250 250 249 249 247 243 245 250 254 257 258 259 260 262 264 266 268 269 270 270 271 272 272 274 276 276 276 276 277 278 278 278 278 278 278 278 278 279 279 279 279 279 279 279 280 280 280 280 280 280 280 279 278 277 275
265 266 267 268 268 269 270 271 272 273 274 276 276 277 278 277 275 272 269 266 265 264 262 259 257 254 250 246 243 244 246 247 247 246 243 240 241 246 251 254 257 258 259 262 266 269 270 272 273 273 274 274 273 274 276 276 275 276 277 277 278 278 279 279 279 280 280 280 280 280 280 280 281 281 281 281 281 281 282 282 282 279 277 274 272
267 268 269 269 269 270 271 272 273 275 277 278 279 278 276 272 268 265 261 259 259 258 254 251 248 244 239 237 239 242 243 242 240 240 239 237 239 244 248 252 255 257 259 264 270 273 274 274 274 274 274 274 274 275 275 276 277 278 278 279 279 279 280 280 281 281 281 281 281 282 282 283 283 283 283 283 284 285 285 284 282 278 275 273 271
269 269 270 270 270 272 273 274 275 277 278 277 275 270 264 262 262 260 257 254 252 250 248 245 241 236 235 236 239 238 236 233 232 233 234 235 242 249 253 256 258 260 264 269 272 273 272 271 272 273 274 275 276 277 278 279 280 281 281 281 281 281 281 281 281 281 282 282 283 284 284 284 284 284 285 286 287 287 285 283 280 278 275 272 270
270 271 271 272 272 274 274 274 274 273 272 267 260 257 258 261 264 263 259 255 251 248 244 239 233 230 231 232 231 228 227 228 230 233 236 240 247 252 254 256 257 260 263 266 267 267 269 271 274 275 276 278 279 281 282 283 284 284 283 282 282 282 282 282 282 283 283 283 284 284 284 284 285 285 286 287 286 285 284 282 280 278 275 273 272
271 271 271 272 272 270 267 265 263 261 256 251 249 253 260 265 265 263 258 252 249 244 236 230 228 228 230 233 230 226 227 232 238 241 242 243 245 247 249 250 251 253 257 260 264 268 271 274 275 277 280 283 285 286 287 287 286 286 285 284 284 285 285 285 285 284 284 284 284 284 284 284 285 286 286 285 284 284 282 281 279 278 277 275 274
267 266 264 263 259 254 250 249 249 246 242 241 245 252 261 267 271 271 254 242 237 227 219 217 215 214 217 225 231 234 236 238 238 237 236 236 239 241 243 245 246 249 254 260 266 270 274 278 282 286 288 290 290 289 289 289 289 288 288 288 288 288 288 288 287 286 286 286 286 285 285 285 285 284 283 283 283 282 281 280 280 280 279 277 274
256 250 245 243 242 243 244 243 241 238 235 238 246 251 252 257 264 261 216 198 195 197 201 206 208 209 212 218 225 230 230 227 224 225 230 234 236 236 238 242 247 251 257 263 269 275 281 287 290 292 293 293 293 292 292 292 291 291 291 291 291 291 290 289 288 288 287 287 287 286 286 285 284 283 282 281 280 279 279 281 282 282 280 277 273
Height
5760 5760 5760 5760 5760 5761 5760 5760 5760 5759 5759 5759 5758 5758 5758 5759 5760 5761 5761 5762 5763 5765 5766 5766 5767 5767 5767 5767 5768 5768 5769 5769 5770 5770 5770 5770 5770 5771 5771 5771 5772 5773 5774 5774 5774 5774 5774 5775 5776 5776 5777 5778 5779 5780 5781 5782 5782 5782 5782 5784 5784 5783 5784 5786 5788 5789 5790 5791 5792 5795 5797 5800 5802 5804 5806 5808 5810 5811 5812 5814 5815 5816 5818 5819 5820
5757 5757 5758 5758 5758 5758 5758 5757 5757 5756 5755 5755 5755 5754 5754 5756 5757 5758 5758 5759 5760 5761 5762 5763 5763 5764 5764 5765 5765 5765 5766 5766 5766 5767 5767 5767 5767 5768 5768 5768 5769 5770 5771 5772 5772 5771 5771 5772 5773 5774 5774 5775 5775 5777 5778 5779 5780 5780 5781 5783 5783 5782 5783 5784 5784 5785 5786 5787 5788 5790 5793 5796 5798 5800 5802 5804 5806 5807 5809 5810 5811 5813 5814 5815 5816
5755 5755 5755 5755 5755 5755 5755 5755 5754 5753 5752 5752 5751 5751 5751 5753 5754 5754 5755 5755 5756 5757 5758 5759 5760 5760 5761 5761 5762 5762 5763 5763 5763 5764 5764 5764 5764 5765 5765 5765 5766 5767 5768 5769 5769 5769 5769 5769 5770 5771 5772 5772 5773 5774 5775 5776 5777 5778 5779 5779 5780 5781 5781 5781 5781 5782 5783 5784 5785 5786 5788 5791 5794 5796 5798 5800 5802 5803 5805 5807 5808 5810 5811 5812 5813
5752 5752 5751 5752 5752 5752 5753 5752 5751 5750 5749 5748 5748 5748 5749 5750 5751 5751 5752 5752 5752 5753 5754 5755 5756 5757 5757 5758 5758 5759 5760 5760 5760 5761 5761 5761 5761 5762 5762 5762 5763 5764 5765 5766 5766 5766 5766 5766 5767 5769 5769 5770 5770 5771 5772 5773 5774 5775 5776 5776 5777 5779 5779 5779 5779 5780 5780 5782 5783 5784 5785 5787 5789 5792 5794 5796 5798 5800 5802 5803 5805 5806 5808 5809 5811
5750 5749 5749 5749 5750 5750 5750 5749 5748 5746 5745 5745 5746 5746 5746 5747 5748 5748 5749 5749 5749 5750 5750 5751 5752 5753 5754 5754 5755 5756 5756 5757 5757 5758 5758 5758 5758 5759 5759 5759 5760 5761 5762 5763 5764 5764 5764 5763 5764 5765 5767 5768 5768 5768 5769 5770 5771 5772 5773 5774 5775 5776 5776 5776 5777 5777 5778 5779 5781 5782 5783 5784 5786 5788 5790 5793 5796 5797 5798 5800 5801 5803 5804 5806 5808
5747 5747 5746 5746 5747 5747 5747 5747 5745 5743 5742 5743 5744 5744 5744 5745 5745 5746 5747 5747 5746 5747 5747 5748 5748 5749 5750 5751 5752 5752 5753 5754 5755 5755 5755 5755 5755 5755 5756 5757 5757 5758 5759 5760 5761 5761 5761 5761 5761 5762 5763 5765 5765 5766 5767 5767 5768 5769 5770 5771 5772 5773 5774 5774 5775 5776 5776 5777 5779 5780 5781 5782 5784 5785 5787 5790 5792 5793 5794 5796 5797 5799 5801 5802 5804
5744 5744 5743 5744 5744 5744 5745 5744 5742 5740 5740 5741 5741 5741 5741 5742 5743 5743 5744 5744 5744 5744 5744 5744 5745 5746 5747 5747 5748 5749 5750 5751 5752 5752 5753 5753 5753 5753 5753 5754 5754 5755 5756 5756 5757 5758 5758 5758 5759 5759 5760 5761 5762 5763 5764 5765 5766 5767 5768 5769 5770 5771 5771 5772 5773 5774 5775 5775 5776 5777 5779 5780 5781 5783 5784 5786 5788 5789 5790 5792 5793 5795 5797 5798 5800
5739 5740 5740 5740 5741 5742 5742 5741 5739 5738 5738 5738 5738 5738 5739 5740 5740 5741 5742 5742 5742 5742 5742 5742 5742 5743 5744 5744 5745 5745 5746 5747 5748 5749 5750 5750 5750 5750 5751 5751 5752 5752 5753 5754 5754 5755 5755 5756 5756 5756 5757 5758 5759 5760 5761 5762 5763 5764 5765 5766 5767 5768 5769 5769 5771 5772 5773 5773 5774 5774 5776 5777 5778 5779 5781 5782 5784 5785 5786 5788 5790 5791 5793 5794 5796
5735 5736 5736 5736 5738 5738 5738 5738 5736 5736 5736 5736 5735 5736 5737 5737 5738 5739 5739 5740 5740 5740 5739 5739 5739 5740 5741 5741 5741 5742 5743 5744 5745 5746 5747 5747 5748 5748 5748 5749 5749 5750 5750 5751 5752 5752 5753 5753 5753 5754 5754 5755 5756 5757 5758 5759 5760 5761 5762 5763 5764 5765 5765 5766 5767 5769 5770 5771 5772 5773 5773 5774 5775 5776 5777 5779 5780 5782 5783 5784 5786 5788 5789 5791 5792
5731 5733 5733 5733 5734 5735 5735 5735 5734 5733 5734 5733 5733 5734 5735 5735 5736 5736 5736 5737 5738 5738 5737 5737 5737 5737 5738 5738 5738 5739 5740 5741 5742 5742 5743 5744 5745 5745 5746 5746 5747 5747 5748 5748 5749 5749 5750 5750 5751 5751 5752 5752 5753 5754 5755 5756 5757 5758 5759 5760 5761 5762 5762 5763 5764 5765 5766 5768 5769 5770 5771 5772 5772 5773 5774 5775 5777 5778 5780 5780 5782 5783 5785 5787 5788
5728 5729 5730 5730 5731 5731 5732 5732 5731 5731 5731 5731 5731 5732 5733 5733 5733 5734 5734 5734 5735 5735 5735 5734 5734 5734 5735 5735 5736 5736 5737 5737 5738 5739 5740 5741 5742 5742 5743 5743 5744 5745 5745 5746 5746 5747 5747 5748 5748 5748 5749 5750 5750 5751 5752 5753 5754 5755 5756 5757 5758 5759 5759 5760 5761 5762 5763 5764 5765 5767 5768 5769 5769 5770 5771 5772 5773 5775 5777 5778 5778 5779 5781 5783 5784
5725 5726 5726 5727 5728 5729 5730 5729 5729 5729 5729 5729 5729 5730 5730 5731 5731 5731 5731 5732 5733 5733 5733 5732 5732 5732 5732 5733 5733 5733 5734 5734 5735 5736 5737 5738 5738 5739 5740 5740 5741 5742 5743 5743 5744 5744 5745 5745 5746 5746 5746 5747 5748 5748 5749 5750 5751 5752 5753 5754 5756 5756 5757 5757 5758 5758 5759 5760 5762 5763 5764 5765 5766 5767 5767 5768 5769 5771 5773 5774 5775 5775 5777 5779 5780
5723 5723 5723 5725 5726 5727 5727 5727 5727 5727 5726 5726 5726 5727 5728 5728 5728 5729 5729 5729 5730 5730 5730 5730 5730 5730 5730 5731 5731 5731 5731 5732 5733 5733 5734 5735 5735 5736 5737 5737 5738 5739 5740 5740 5741 5741 5742 5743 5743 5744 5744 5744 5745 5746 5747 5747 5748 5749 5750 5751 5752 5753 5754 5755 5755 5755 5756 5757 5758 5759 5760 5762 5763 5763 5764 5765 5765 5767 5768 5770 5771 5772 5773 5775 5775
5721 5721 5721 5723 5724 5725 5725 5725 5724 5724 5724 5724 5724 5725 5726 5726 5726 5726 5726 5727 5727 5728 5728 5728 5728 5728 5728 5728 5729 5729 5729 5729 5730 5731 5732 5732 5733 5733 5734 5734 5735 5736 5737 5737 5738 5738 5739 5740 5740 5741 5741 5742 5742 5743 5743 5744 5745 5746 5747 5748 5749 5750 5751 5751 5752 5753 5753 5754 5755 5756 5757 5758 5759 5760 5761 5761 5762 5762 5763 5765 5767 5767 5769 5771 5771
5718 5719 5719 5720 5721 5722 5723 5722 5721 5721 5721 5722 5722 5723 5723 5724 5724 5724 5724 5724 5724 5725 5725 5725 5726 5726 5726 5726 5726 5726 5727 5727 5728 5728 5729 5730 5731 5731 5731 5732 5732 5733 5734 5735 5735 5736 5736 5737 5737 5738 5738 5739 5739 5740 5740 5741 5742 5743 5744 5744 5745 5746 5747 5748 5749 5749 5750 5750 5751 5752 5753 5754 5755 5756 5757 5757 5758 5759 5759 5760 5761 5763 5764 5766 5767
5716 5716 5717 5717 5718 5719 5720 5720 5719 5718 5719 5720 5720 5720 5721 5721 5721 5721 5721 5721 5721 5722 5723 5723 5723 5723 5724 5724 5724 5724 5724 5724 5725 5726 5726 5727 5728 5729 5729 5730 5730 5730 5731 5732 5733 5733 5734 5734 5734 5735 5735 5736 5736 5736 5737 5737 5738 5739 5740 5741 5741 5742 5743 5744 5745 5746 5746 5747 5747 5748 5749 5749 5750 5751 5752 5753 5754 5755 5755 5756 5756 5757 5759 5761 5762
5713 5713 5714 5715 5716 5716 5717 5717 5716 5716 5717 5717 5718 5718 5718 5718 5718 5718 5718 5718 5718 5719 5719 5720 5720 5721 5721 5721 5721 5721 5721 5721 5722 5723 5724 5724 5725 5726 5727 5727 5728 5728 5729 5729 5730 5731 5731 5732 5732 5733 5733 5733 5733 5733 5734 5734 5735 5735 5736 5737 5738 5738 5739 5740 5741 5741 5742 5743 5743 5744 5744 5745 5746 5746 5747 5748 5749 5750 5750 5751 5752 5753 5754 5756 5757
5709 5710 5710 5711 5712 5712 5712 5713 5713 5713 5714 5714 5714 5714 5714 5714 5715 5715 5716 5715 5715 5716 5716 5717 5717 5718 5718 5718 5718 5718 5719 5719 5719 5720 5721 5722 5722 5723 5724 5725 5725 5726 5726 5727 5727 5728 5729 5729 5730 5730 5730 5731 5731 5731 5731 5731 5732 5732 5733 5733 5734 5734 5735 5736 5736 5737 5738 5738 5739 5739 5740 5741 5741 5742 5743 5743 5744 5745 5745 5746 5747 5748 5749 5751 5752
5706 5707 5707 5707 5708 5708 5708 5709 5709 5709 5710 5710 5710 5711 5711 5712 5712 5712 5713 5713 5713 5713 5713 5713 5714 5715 5715 5715 5716 5716 5716 5717 5717 5718 5718 5719 5719 5720 5721 5721 5723 5723 5724 5724 5725 5725 5726 5726 5727 5727 5727 5728 5728 5728 5729 5729 5729 5729 5730 5730 5731 5731 5731 5732 5732 5733 5734 5734 5734 5735 5735 5736 5736 5737 5738 5739 5739 5740 5740 5741 5741 5742 5743 5745 5746
5702 5703 5704 5704 5704 5705 5705 5705 5706 5706 5706 5706 5707 5707 5708 5708 5709 5709 5709 5710 5710 5710 5710 5710 5711 5711 5712 5712 5713 5713 5714 5714 5715 5715 5715 5716 5716 5716 5717 5718 5719 5720 5721 5721 5722 5723 5723 5723 5723 5724 5724 5724 5724 5725 5725 5725 5726 5726 5726 5727 5727 5727 5728 5728 5728 5729 5729 5730 5730 5730 5731 5731 5732 5732 5733 5733 5734 5735 5736 5736 5737 5737 5738 5739 5740
5697 5698 5699 5700 5701 5701 5702 5702 5702 5702 5702 5703 5703 5704 5705 5705 5705 5705 5706 5706 5707 5707 5707 5707 5707 5708 5709 5709 5710 5710 5711 5711 5712 5713 5713 5713 5713 5713 5713 5714 5715 5716 5717 5718 5718 5719 5720 5720 5720 5720 5720 5721 5721 5721 5721 5722 5722 5722 5723 5723 5723 5723 5724 5724 5724 5725 5725 5725 5725 5725 5726 5726 5727 5727 5727 5728 5729 5729 5730 5731 5731 5732 5732 5733 5734
5693 5693 5694 5695 5696 5697 5698 5698 5699 5699 5699 5700 5700 5700 5701 5701 5701 5701 5702 5703 5703 5703 5704 5704 5704 5705 5706 5706 5707 5708 5708 5709 5709 5710 5710 5710 5710 5710 5710 5711 5712 5712 5713 5713 5714 5715 5716 5716 5717 5717 5717 5717 5717 5718 5718 5718 5718 5718 5718 5719 5719 5719 5719 5719 5719 5719 5720 5720 5720 5721 5721 5721 5722 5722 5722 5723 5723 5724 5725 5725 5726 5726 5727 5727 5727
5689 5689 5689 5690 5691 5692 5693 5694 5695 5695 5695 5696 5696 5696 5696 5696 5697 5697 5698 5699 5699 5699 5700 5700 5701 5701 5701 5702 5703 5704 5705 5705 5706 5707 5707 5707 5707 5707 5707 5708 5709 5709 5709 5710 5710 5711 5711 5712 5712 5713 5713 5714 5714 5714 5715 5715 5715 5715 5715 5715 5715 5715 5714 5714 5714 5714 5714 5714 5715 5715 5715 5716 5716 5717 5717 5717 5718 5718 5719 5719 5720 5720 5721 5721 5721
5684 5685 5685 5685 5686 5687 5688 5689 5690 5691 5691 5691 5692 5692 5692 5692 5693 5693 5693 5694 5694 5696 5697 5697 5697 5697 5697 5698 5699 5700 5700 5701 5702 5702 5703 5703 5703 5703 5704 5705 5705 5706 5706 5706 5707 5707 5708 5708 5708 5708 5709 5709 5710 5710 5711 5711 5711 5711 5711 5711 5711 5710 5710 5709 5709 5708 5708 5709 5709 5709 5709 5710 5710 5711 5711 5711 5711 5712 5712 5713 5713 5713 5714 5715 5715
5679 5680 5680 5680 5681 5682 5683 5684 5685 5686 5687 5687 5688 5688 5688 5688 5689 5689 5689 5689 5690 5692 5693 5693 5693 5694 5694 5694 5695 5696 5696 5697 5697 5698 5698 5699 5699 5699 5700 5700 5701 5701 5702 5703 5703 5703 5704 5704 5704 5704 5704 5704 5705 5706 5706 5707 5707 5707 5707 5707 5706 5706 5705 5705 5704 5704 5703 5703 5703 5703 5703 5703 5704 5704 5704 5704 5704 5705 5705 5706 5706 5706 5707 5707 5708
5674 5674 5674 5675 5676 5676 5677 5678 5679 5680 5681 5682 5683 5683 5683 5684 5684 5685 5685 5685 5686 5687 5688 5689 5689 5690 5690 5690 5691 5691 5692 5692 5693 5693 5694 5694 5695 5695 5696 5696 5696 5697 5697 5698 5698 5699 5699 5699 5699 5699 5699 5700 5700 5701 5701 5701 5701 5701 5702 5702 5702 5702 5701 5700 5700 5699 5699 5698 5698 5698 5698 5698 5698 5698 5698 5698 5698 5698 5698 5699 5699 5699 5699 5700 5700
5668 5668 5669 5669 5670 5670 5671 5671 5672 5673 5675 5676 5677 5678 5678 5678 5679 5680 5680 5680 5681 5682 5683 5683 5684 5685 5686 5686 5686 5686 5687 5688 5688 5689 5690 5690 5691 5690 5690 5691 5691 5691 5691 5692 5693 5693 5694 5694 5694 5694 5694 5694 5695 5695 5695 5695 5695 5696 5696 5696 5696 5696 5696 5696 5695 5695 5694 5694 5693 5693 5693 5692 5692 5692 5692 5692 5692 5692 5692 5692 5692 5692 5692 5693 5693
5662 5662 5663 5664 5664 5664 5665 5665 5666 5667 5668 5669 5670 5671 5672 5672 5673 5674 5675 5675 5676 5677 5677 5678 5679 5680 5681 5681 5681 5681 5682 5683 5683 5684 5685 5686 5686 5684 5683 5683 5683 5684 5685 5685 5686 5687 5688 5688 5688 5688 5689 5689 5689 5689 5689 5689 5689 5689 5689 5690 5690 5690 5690 5690 5690 5690 5689 5689 5688 5688 5687 5687 5687 5687 5687 5687 5687 5687 5687 5687 5686 5686 5686 5686 5687
5655 5656 5657 5658 5658 5659 5659 5659 5659 5660 5661 5662 5664 5664 5665 5666 5667 5668 5669 5670 5671 5672 5672 5672 5673 5674 5675 5675 5675 5676 5677 5677 5677 5677 5678 5679 5679 5678 5677 5675 5675 5675 5677 5678 5679 5680 5681 5681 5681 5682 5682 5683 5682 5683 5683 5683 5683 5683 5683 5683 5683 5683 5683 5684 5684 5684 5684 5683 5683 5682 5682 5682 5681 5681 5681 5681 5681 5681 5681 5681 5681 5680 5680 5680 5680
5649 5650 5651 5652 5652 5653 5653 5653 5654 5654 5655 5656 5657 5658 5659 5659 5660 5661 5662 5663 5665 5666 5667 5667 5668 5668 5668 5668 5669 5670 5671 5671 5670 5671 5672 5672 5672 5672 5671 5670 5669 5668 5669 5670 5672 5673 5674 5675 5675 5676 5676 5676 5676 5677 5677 5677 5676 5676 5676 5676 5676 5677 5677 5677 5678 5678 5678 5677 5677 5676 5676 5675 5675 5675 5675 5675 5675 5675 5674 5674 5674 5674 5674 5674 5674
5641 5642 5643 5644 5645 5646 5647 5647 5648 5648 5648 5649 5650 5651 5652 5652 5653 5654 5654 5655 5657 5658 5660 5661 5661 5661 5661 5662 5662 5663 5664 5664 5664 5665 5665 5665 5664 5664 5664 5664 5664 5663 5663 5664 5666 5667 5668 5669 5669 5669 5670 5670 5670 5670 5670 5670 5670 5670 5670 5670 5670 5670 5670 5670 5670 5671 5671 5671 5670 5670 5669 5669 5669 5668 5668 5668 5668 5668 5668 5667 5667 5667 5667 5667 5667
5634 5634 5636 5637 5638 5639 5640 5640 5641 5641 5641 5642 5642 5643 5644 5644 5645 5646 5647 5647 5648 5649 5651 5652 5653 5654 5654 5654 5655 5656 5657 5657 5657 5657 5658 5659 5658 5657 5657 5657 5657 5658 5657 5658 5660 5660 5661 5661 5661 5661 5663 5663 5664 5664 5663 5663 5663 5663 5663 5663 5663 5663 5663 5663 5663 5663 5664 5664 5664 5663 5663 5662 5662 5662 5661 5661 5661 5661 5660 5660 5660 5660 5659 5659 5659
5626 5627 5628 5629 5630 5631 5632 5633 5634 5634 5634 5635 5635 5636 5637 5637 5638 5638 5639 5640 5640 5641 5643 5644 5644 5645 5645 5646 5647 5648 5649 5649 5649 5649 5651 5652 5652 5651 5650 5650 5651 5652 5652 5652 5654 5654 5655 5655 5654 5655 5656 5657 5657 5656 5656 5656 5657 5657 5657 5657 5657 5656 5656 5656 5655 5656 5656 5656 5656 5656 5656 5656 5655 5654 5654 5654 5653 5653 5653 5652 5652 5652 5652 5651 5651
5619 5620 5621 5622 5623 5624 5625 5626 5627 5627 5627 5628 5628 5628 5629 5630 5631 5631 5632 5632 5633 5633 5634 5636 5637 5637 5637 5638 5638 5639 5640 5641 5641 5642 5643 5644 5644 5644 5643 5643 5645 5646 5646 5646 5648 5648 5649 5649 5649 5649 5649 5649 5649 5649 5649 5649 5649 5649 5649 5649 5650 5649 5649 5648 5648 5648 5648 5649 5649 5649 5649 5649 5648 5647 5646 5646 5645 5645 5645 5645 5644 5644 5644 5643 5642
5612 5613 5614 5614 5615 5617 5617 5618 5619 5620 5620 5620 5620 5621 5622 5623 5623 5624 5625 5625 5625 5626 5627 5627 5628 5629 5630 5630 5631 5631 5632 5632 5633 5634 5635 5635 5636 5636 5637 5638 5638 5639 5640 5641 5642 5642 5642 5641 5641 5642 5642 5642 5642 5642 5643 5642 5642 5642 5642 5642 5642 5642 5642 5641 5641 5640 5641 5641 5641 5641 5641 5641 5640 5639 5638 5637 5637 5636 5636 5636 5636 5636 5635 5634 5633
5604 5605 5606 5607 5608 5609 5610 5611 5612 5613 5613 5613 5613 5614 5615 5616 5616 5616 5617 5617 5618 5619 5620 5620 5621 5621 5622 5623 5623 5624 5624 5625 5625 5626 5626 5627 5628 5629 5630 5631 5632 5632 5633 5634 5635 5635 5634 5633 5634 5634 5634 5634 5635 5635 5636 5636 5635 5635 5635 5635 5635 5634 5634 5634 5633 5633 5633 5634 5633 5633 5633 5633 5632 5631 5630 5629 5627 5627 5627 5627 5627 5626 5626 5625 5624
5597 5598 5599 5599 5600 5601 5602 5604 5604 5605 5605 5605 5606 5607 5608 5609 5608 5608 5608 5609 5610 5611 5612 5612 5613 5614 5614 5615 5616 5616 5617 5618 5618 5619 5619 5619 5620 5621 5622 5623 5624 5624 5625 5627 5627 5627 5627 5626 5626 5626 5627 5627 5628 5628 5628 5628 5628 5628 5628 5627 5627 5627 5626 5626 5626 5626 5626 5626 5626 5625 5625 5624 5624 5623 5621 5620 5618 5617 5617 5617 5616 5616 5615 5615 5614
5590 5591 5591 5592 5592 5593 5595 5596 5597 5597 5597 5598 5599 5600 5600 5601 5601 5600 5601 5602 5602 5603 5603 5604 5605 5606 5607 5608 5609 5609 5610 5610 5611 5611 5612 5612 5613 5613 5614 5616 5617 5617 5618 5619 5620 5621 5620 5619 5619 5619 5620 5620 5620 5620 5620 5621 5621 5620 5620 5620 5619 5619 5619 5618 5618 5619 5619 5618 5618 5617 5616 5615 5615 5613 5611 5610 5608 5607 5606 5606 5605 5604 5605 5605 5603
5583 5583 5584 5584 5585 5586 5587 5588 5589 5589 5589 5590 5591 5592 5593 5594 5594 5593 5594 5595 5595 5594 5594 5596 5598 5599 5599 5600 5601 5602 5602 5603 5604 5604 5605 5605 5606 5607 5608 5609 5609 5610 5611 5612 5613 5613 5613 5613 5613 5613 5613 5612 5612 5612 5613 5613 5613 5613 5612 5611 5611 5611 5611 5611 5611 5611 5611 5611 5610 5609 5607 5606 5605 5603 5601 5600 5598 5595 5595 5594 5593 5592 5593 5594 5591
5576 5576 5577 5577 5578 5579 5580 5580 5581 5582 5582 5583 5584 5585 5586 5586 5586 5586 5587 5587 5587 5586 5587 5589 5590 5591 5592 5592 5593 5593 5594 5595 5596 5596 5598 5599 5600 5601 5603 5603 5603 5603 5604 5604 5605 5606 5606 5606 5606 5606 5606 5605 5605 5605 5605 5605 5605 5605 5604 5604 5603 5603 5603 5604 5604 5604 5604 5603 5602 5600 5598 5596 5594 5593 5591 5589 5587 5584 5583 5582 5581 5580 5581 5581 5579
5570 5570 5570 5570 5571 5572 5573 5573 5573 5574 5574 5575 5576 5577 5578 5578 5578 5579 5579 5578 5578 5579 5581 5581 5582 5583 5584 5584 5584 5585 5586 5587 5588 5588 5590 5592 5592 5594 5596 5597 5597 5598 5598 5598 5599 5600 5600 5600 5600 5600 5599 5599 5598 5598 5598 5597 5598 5598 5597 5597 5596 5596 5596 5596 5597 5596 5595 5594 5592 5590 5588 5586 5583 5582 5580 5577 5576 5573 5571 5570 5569 5568 5567 5567 5565
5563 5563 5563 5564 5565 5565 5566 5566 5566 5566 5566 5567 5568 5569 5569 5569 5570 5571 5570 5569 5570 5571 5572 5573 5574 5574 5575 5576 5576 5577 5578 5579 5580 5581 5583 5584 5585 5586 5588 5590 5592 5592 5593 5593 5594 5594 5594 5594 5594 5593 5593 5592 5592 5591 5591 5590 5590 5590 5590 5590 5589 5588 5588 5587 5588 5587 5585 5583 5582 5580 5578 5575 5573 5571 5569 5566 5564 5562 5560 5559 5558 5556 5554 5553 5551
5557 5557 5557 5557 5558 5559 5559 5559 5559 5559 5559 5560 5560 5561 5561 5561 5562 5562 5560 5560 5561 5562 5563 5564 5564 5565 5565 5566 5567 5568 5570 5571 5573 5574 5576 5578 5579 5580 5582 5583 5585 5587 5588 5588 5588 5588 5588 5587 5587 5587 5587 5586 5585 5585 5585 5584 5584 5583 5583 5582 5581 5580 5579 5578 5578 5577 5575 5573 5572 5569 5567 5564 5561 5559 5557 5555 5553 5551 5549 5548 5546 5544 5542 5541 5539
5551 5551 5551 5551 5551 5552 5553 5553 5552 5552 5552 5553 5553 5553 5553 5554 5554 5553 5551 5550 5551 5552 5554 5555 5555 5555 5556 5557 5559 5561 5563 5565 5567 5569 5571 5572 5574 5575 5577 5579 5580 5581 5583 5583 5583 5583 5583 5582 5582 5581 5580 5580 5579 5579 5578 5578 5577 5576 5575 5574 5573 5571 5570 5569 5568 5567 5565 5564 5562 5559 5556 5553 5550 5548 5545 5543 5541 5540 5538 5537 5536 5533 5531 5529 5527
5545 5545 5544 5544 5545 5546 5546 5546 5546 5545 5545 5546 5545 5545 5545 5545 5544 5543 5542 5541 5541 5542 5545 5546 5546 5547 5549 5551 5553 5555 5558 5560 5562 5564 5565 5567 5568 5570 5572 5574 5575 5576 5577 5578 5578 5578 5577 5577 5576 5576 5574 5574 5573 5573 5572 5572 5571 5570 5568 5567 5565 5564 5562 5560 5559 5558 5556 5553 5551 5548 5545 5542 5539 5536 5534 5532 5530 5529 5527 5526 5525 5522 5520 5518 5517
5537 5537 5537 5537 5538 5538 5539 5539 5539 5538 5538 5538 5538 5537 5537 5536 5535 5534 5534 5533 5533 5535 5538 5539 5540 5542 5544 5546 5548 5551 5553 5555 5557 5559 5560 5561 5563 5566 5568 5569 5570 5571 5572 5573 5573 5572 5572 5571 5570 5570 5569 5568 5568 5568 5567 5566 5565 5564 5562 5560 5558 5556 5554 5552 5550 5548 5546 5543 5540 5537 5534 5531 5528 5525 5523 5521 5519 5518 5516 5515 5514 5512 5510 5508 5507
5528 5529 5529 5529 5530 5531 5531 5532 5531 5530 5531 5531 5530 5529 5529 5529 5529 5528 5528 5528 5528 5531 5533 5535 5536 5538 5540 5542 5544 5546 5548 5550 5551 5553 5555 5557 5559 5562 5564 5565 5566 5567 5567 5568 5568 5567 5567 5566 5566 5566 5565 5565 5564 5564 5563 5561 5559 5557 5555 5553 5551 5548 5546 5544 5541 5539 5536 5533 5530 5527 5523 5520 5517 5515 5512 5511 5509 5508 5506 5505 5504 5502 5500 5499 5498
5519 5520 5521 5521 5522 5523 5523 5523 5523 5523 5524 5525 5524 5524 5525 5525 5525 5524 5523 5523 5525 5527 5529 5530 5532 5533 5535 5537 5539 5541 5543 5544 5546 5548 5552 5555 5557 5558 5560 5561 5562 5562 5563 5563 5563 5563 5563 5563 5563 5563 5562 5562 5561 5559 5557 5555 5553 5551 5549 5546 5543 5541 5539 5536 5533 5530 5527 5524 5521 5518 5514 5511 5508 5505 5503 5501 5500 5498 5497 5496 5495 5493 5492 5491 5489
5511 5512 5512 5513 5514 5515 5515 5516 5516 5517 5519 5520 5521 5521 5522 5521 5521 5521 5520 5520 5522 5523 5525 5526 5528 5530 5532 5533 5534 5537 5539 5541 5543 5546 5550 5552 5554 5555 5556 5557 5557 5558 5558 5559 5560 5560 5560 5560 5560 5560 5559 5558 5556 5554 5552 5549 5547 5544 5541 5539 5536 5533 5531 5528 5524 5520 5518 5516 5513 5509 5505 5502 5499 5497 5495 5493 5491 5490 5489 5488 5486 5485 5485 5483 5482
5503 5504 5505 5507 5508 5509 5510 5511 5512 5513 5515 5517 5518 5519 5519 5518 5518 5518 5518 5518 5519 5521 5523 5524 5526 5528 5529 5530 5532 5535 5537 5539 5542 5544 5547 5549 5550 5551 5552 5553 5554 5554 5555 5557 5557 5558 5558 5557 5556 5555 5554 5553 5551 5549 5546 5543 5540 5537 5534 5531 5528 5525 5522 5518 5515 5511 5509 5506 5503 5500 5497 5494 5492 5490 5488 5486 5484 5483 5482 5480 5479 5478 5477 5476 5475
5497 5499 5500 5502 5503 5505 5506 5507 5508 5510 5512 5514 5515 5516 5516 5516 5516 5517 5517 5518 5519 5520 5522 5523 5525 5526 5528 5530 5532 5534 5536 5538 5540 5542 5544 5546 5547 5548 5549 5550 5551 5552 5553 5554 5555 5555 5554 5553 5552 5551 5550 5548 5546 5543 5541 5538 5535 5531 5528 5524 5521 5517 5514 5510 5506 5503 5501 5498 5494 5491 5489 5487 5485 5483 5481 5480 5478 5477 5476 5475 5473 5472 5470 5469 5468